• In Kazakhstan
  • List of Countries
  • For 7 days
  • Water Temperature
  • Satellite Maps
  • Weather Map
  • News
  • Weather Widgets
  • user-avatar
    Login

    Hourly Weather Mazyr

    Today, 24 October, Tuesday

    Time Temperature Precipitation Wind Pressure Humidity
    00:00 +2°C° 0 mm 3 mps 751 mmHg 66%
    01:00 +2°C° 0 mm 3 mps 751 mmHg 66%
    02:00 +1°C° 0 mm 3 mps 752 mmHg 66%
    03:00 +1°C° 0 mm 3 mps 752 mmHg 67%
    04:00 +1°C° 0 mm 3 mps 752 mmHg 68%
    05:00 0°C° 0 mm 3 mps 752 mmHg 69%
    06:00 0°C° 0 mm 4 mps 753 mmHg 68%
    07:00 0°C° 0 mm 4 mps 753 mmHg 67%
    08:00 0°C° 0 mm 4 mps 754 mmHg 66%
    09:00 +1°C° 0 mm 4 mps 754 mmHg 62%
    10:00 +1°C° 0 mm 4 mps 754 mmHg 59%
    11:00 +3°C° 0 mm 4 mps 755 mmHg 56%
    12:00 +4°C° 0 mm 4 mps 755 mmHg 54%
    13:00 +4°C° 0 mm 4 mps 755 mmHg 52%
    14:00 +5°C° 0 mm 4 mps 755 mmHg 50%
    15:00 +3°C° 0 mm 3 mps 755 mmHg 55%
    16:00 +2°C° 0 mm 3 mps 755 mmHg 60%
    17:00 +2°C° 0 mm 2 mps 756 mmHg 65%
    18:00 +2°C° 0 mm 2 mps 756 mmHg 67%
    19:00 +1°C° 0 mm 2 mps 756 mmHg 70%
    20:00 -1°C° 0 mm 2 mps 757 mmHg 73%
    21:00 -1°C° 0 mm 2 mps 757 mmHg 75%
    22:00 -2°C° 0 mm 2 mps 757 mmHg 78%
    23:00 -2°C° 0 mm 2 mps 757 mmHg 80%

    Tomorrow, 25 October, Wednesday

    Time Temperature Precipitation Wind Pressure Humidity
    00:00 -2°C° 0 mm 2 mps 758 mmHg 81%
    01:00 -3°C° 0 mm 2 mps 758 mmHg 81%
    02:00 -3°C° 0 mm 2 mps 758 mmHg 82%
    03:00 -3°C° 0 mm 2 mps 758 mmHg 82%
    04:00 -3°C° 0 mm 2 mps 758 mmHg 82%
    05:00 -3°C° 0 mm 2 mps 758 mmHg 82%
    06:00 -3°C° 0 mm 2 mps 758 mmHg 79%
    07:00 -2°C° 0 mm 2 mps 758 mmHg 77%
    08:00 -2°C° 0 mm 2 mps 758 mmHg 74%
    09:00 +1°C° 0 mm 2 mps 758 mmHg 67%
    10:00 +1°C° 0 mm 3 mps 758 mmHg 60%
    11:00 +3°C° 0 mm 3 mps 758 mmHg 53%
    12:00 +4°C° 0 mm 2 mps 758 mmHg 51%
    13:00 +5°C° 0 mm 2 mps 758 mmHg 49%
    14:00 +5°C° 0 mm 2 mps 757 mmHg 47%
    15:00 +4°C° 0 mm 2 mps 757 mmHg 53%
    16:00 +3°C° 0 mm 2 mps 757 mmHg 59%
    17:00 +1°C° 0 mm 2 mps 756 mmHg 65%
    18:00 +1°C° 0 mm 2 mps 756 mmHg 66%
    19:00 0°C° 0 mm 3 mps 756 mmHg 68%
    20:00 -1°C° 0 mm 3 mps 756 mmHg 69%
    21:00 0°C° 0.1 mm 3 mps 755 mmHg 68%
    22:00 0°C° 0.1 mm 3 mps 755 mmHg 66%
    23:00 0°C° 0.1 mm 4 mps 755 mmHg 65%

    Day after tomorrow, 26 October, Thursday

    Time Temperature Precipitation Wind Pressure Humidity
    00:00 0°C° 0.3 mm 4 mps 754 mmHg 66%
    01:00 0°C° 0.3 mm 4 mps 753 mmHg 68%
    02:00 0°C° 0.3 mm 4 mps 753 mmHg 70%
    03:00 0°C° 0.1 mm 5 mps 752 mmHg 71%
    04:00 +1°C° 0.1 mm 5 mps 751 mmHg 72%
    05:00 +1°C° 0.1 mm 5 mps 750 mmHg 73%
    06:00 +1°C° 0.3 mm 4 mps 750 mmHg 77%
    07:00 +1°C° 0.3 mm 4 mps 750 mmHg 82%
    08:00 +3°C° 0.3 mm 3 mps 749 mmHg 86%
    09:00 +3°C° 0 mm 3 mps 749 mmHg 87%
    10:00 +4°C° 0 mm 3 mps 749 mmHg 89%
    11:00 +5°C° 0 mm 3 mps 749 mmHg 90%
    12:00 +7°C° 0 mm 3 mps 749 mmHg 90%
    13:00 +8°C° 0 mm 3 mps 748 mmHg 90%
    14:00 +8°C° 0 mm 3 mps 748 mmHg 90%
    15:00 +8°C° 0.1 mm 3 mps 748 mmHg 91%
    16:00 +8°C° 0.1 mm 3 mps 748 mmHg 91%
    17:00 +8°C° 0.1 mm 3 mps 748 mmHg 91%
    18:00 +8°C° 0 mm 3 mps 748 mmHg 91%
    19:00 +8°C° 0 mm 3 mps 748 mmHg 91%
    20:00 +7°C° 0 mm 3 mps 747 mmHg 90%
    21:00 +7°C° 0 mm 3 mps 747 mmHg 91%
    22:00 +7°C° 0 mm 3 mps 747 mmHg 92%
    23:00 +7°C° 0 mm 3 mps 747 mmHg 92%

    27 October, Friday

    Time Temperature Precipitation Wind Pressure Humidity
    00:00 +7°C° 0 mm 3 mps 746 mmHg 93%
    01:00 +5°C° 0 mm 3 mps 746 mmHg 93%
    02:00 +5°C° 0 mm 3 mps 746 mmHg 94%
    03:00 +5°C° 0 mm 3 mps 745 mmHg 95%
    04:00 +4°C° 0 mm 3 mps 745 mmHg 95%
    05:00 +4°C° 0 mm 3 mps 744 mmHg 96%
    06:00 +4°C° 0 mm 3 mps 744 mmHg 96%
    07:00 +5°C° 0 mm 3 mps 744 mmHg 96%
    08:00 +5°C° 0 mm 3 mps 743 mmHg 96%
    09:00 +7°C° 0 mm 3 mps 743 mmHg 92%
    10:00 +8°C° 0 mm 3 mps 743 mmHg 88%
    11:00 +9°C° 0 mm 3 mps 742 mmHg 84%
    12:00 +10°C° 0.1 mm 3 mps 741 mmHg 84%
    13:00 +10°C° 0.1 mm 3 mps 741 mmHg 84%
    14:00 +10°C° 0.1 mm 3 mps 740 mmHg 84%
    15:00 +9°C° 0.4 mm 2 mps 740 mmHg 88%
    16:00 +9°C° 0.4 mm 2 mps 739 mmHg 92%
    17:00 +8°C° 0.4 mm 2 mps 738 mmHg 95%
    18:00 +8°C° 0.6 mm 2 mps 738 mmHg 96%
    19:00 +8°C° 0.6 mm 2 mps 738 mmHg 97%
    20:00 +7°C° 0.6 mm 2 mps 737 mmHg 97%
    21:00 +8°C° 0.2 mm 1 mps 737 mmHg 97%
    22:00 +8°C° 0.2 mm 1 mps 737 mmHg 97%
    23:00 +8°C° 0.2 mm 1 mps 736 mmHg 97%

    28 October, Saturday

    Time Temperature Precipitation Wind Pressure Humidity
    00:00 +8°C° 0.1 mm 1 mps 736 mmHg 97%
    01:00 +6°C° 0.1 mm 2 mps 736 mmHg 96%
    02:00 +6°C° 0.1 mm 2 mps 736 mmHg 96%
    03:00 +6°C° 0.1 mm 2 mps 736 mmHg 96%
    04:00 +5°C° 0.1 mm 2 mps 735 mmHg 96%
    05:00 +5°C° 0.1 mm 2 mps 735 mmHg 96%
    06:00 +5°C° 0 mm 2 mps 735 mmHg 96%
    07:00 +5°C° 0 mm 2 mps 735 mmHg 95%
    08:00 +5°C° 0 mm 2 mps 735 mmHg 95%
    09:00 +5°C° 0 mm 3 mps 735 mmHg 91%
    10:00 +7°C° 0 mm 3 mps 735 mmHg 88%
    11:00 +7°C° 0 mm 3 mps 735 mmHg 84%
    12:00 +7°C° 0 mm 3 mps 735 mmHg 83%
    13:00 +6°C° 0 mm 4 mps 735 mmHg 82%
    14:00 +6°C° 0 mm 4 mps 735 mmHg 81%
    15:00 +7°C° 0 mm 3 mps 734 mmHg 83%
    16:00 +7°C° 0 mm 3 mps 734 mmHg 86%
    17:00 +6°C° 0 mm 2 mps 734 mmHg 88%
    18:00 +6°C° 0 mm 2 mps 735 mmHg 88%
    19:00 +5°C° 0 mm 3 mps 735 mmHg 89%
    20:00 +5°C° 0 mm 3 mps 735 mmHg 89%
    21:00 +4°C° 0 mm 3 mps 735 mmHg 90%
    22:00 +4°C° 0 mm 3 mps 735 mmHg 92%
    23:00 +4°C° 0 mm 2 mps 735 mmHg 93%

    29 October, Sunday

    Time Temperature Precipitation Wind Pressure Humidity
    00:00 +4°C° 0 mm 2 mps 735 mmHg 94%
    01:00 +3°C° 0 mm 2 mps 735 mmHg 94%
    02:00 +3°C° 0 mm 2 mps 735 mmHg 95%
    03:00 +3°C° 0 mm 2 mps 735 mmHg 95%
    04:00 +3°C° 0 mm 2 mps 735 mmHg 95%
    05:00 +3°C° 0 mm 2 mps 735 mmHg 95%
    06:00 +3°C° 0.1 mm 2 mps 735 mmHg 94%
    07:00 +3°C° 0.1 mm 3 mps 735 mmHg 92%
    08:00 +3°C° 0.1 mm 3 mps 735 mmHg 91%
    09:00 +4°C° 0.1 mm 3 mps 735 mmHg 87%
    10:00 +5°C° 0.1 mm 3 mps 736 mmHg 84%
    11:00 +7°C° 0.1 mm 3 mps 736 mmHg 80%
    12:00 +8°C° 0.1 mm 3 mps 736 mmHg 78%
    13:00 +8°C° 0.1 mm 3 mps 736 mmHg 76%
    14:00 +9°C° 0.1 mm 3 mps 736 mmHg 75%
    15:00 +8°C° 0 mm 3 mps 736 mmHg 79%
    16:00 +7°C° 0 mm 2 mps 736 mmHg 83%
    17:00 +6°C° 0 mm 2 mps 736 mmHg 87%
    18:00 +6°C° 0 mm 2 mps 737 mmHg 88%
    19:00 +6°C° 0 mm 1 mps 737 mmHg 89%
    20:00 +6°C° 0 mm 1 mps 737 mmHg 90%
    21:00 +6°C° 0 mm 1 mps 737 mmHg 90%
    22:00 +6°C° 0 mm 1 mps 738 mmHg 89%
    23:00 +6°C° 0 mm 1 mps 738 mmHg 89%

    30 October, Monday

    Time Temperature Precipitation Wind Pressure Humidity
    00:00 +6°C° 0 mm 1 mps 738 mmHg 89%
    01:00 +6°C° 0 mm 1 mps 738 mmHg 90%
    02:00 +6°C° 0 mm 1 mps 737 mmHg 90%
    03:00 +6°C° 0.1 mm 1 mps 737 mmHg 90%
    04:00 +6°C° 0.1 mm 1 mps 737 mmHg 91%
    05:00 +6°C° 0.1 mm 1 mps 737 mmHg 91%
    06:00 +5°C° 0.2 mm 2 mps 737 mmHg 91%
    07:00 +5°C° 0.2 mm 2 mps 738 mmHg 91%
    08:00 +5°C° 0.2 mm 2 mps 738 mmHg 92%
    09:00 +6°C° 0.1 mm 2 mps 737 mmHg 90%
    10:00 +6°C° 0.1 mm 2 mps 737 mmHg 88%
    11:00 +7°C° 0.1 mm 3 mps 737 mmHg 86%
    12:00 +7°C° 0.2 mm 3 mps 737 mmHg 85%
    13:00 +8°C° 0.2 mm 3 mps 736 mmHg 84%
    14:00 +8°C° 0.2 mm 3 mps 736 mmHg 83%
    15:00 +7°C° 0.3 mm 3 mps 736 mmHg 86%
    16:00 +7°C° 0.3 mm 3 mps 736 mmHg 88%
    17:00 +7°C° 0.3 mm 3 mps 736 mmHg 90%
    18:00 +5°C° 0.2 mm 3 mps 736 mmHg 90%
    19:00 +5°C° 0.2 mm 4 mps 736 mmHg 90%
    20:00 +5°C° 0.2 mm 4 mps 736 mmHg 90%
    21:00 +5°C° 0.1 mm 4 mps 735 mmHg 90%
    22:00 +4°C° 0.1 mm 4 mps 735 mmHg 91%
    23:00 +4°C° 0.1 mm 4 mps 735 mmHg 91%
    Show more